Temp
-12 -12 -12 -12 -12 -12 -12 -12 -12 -12 -12 -12 -12 -12 -12 -12 -12 -12 -12 -12 -12 -13 -13 -13 -13 -12 -12 -12 -12 -12 -12 -12 -12 -12 -12 -12 -12 -12 -12 -12 -12 -12
-12 -12 -12 -12 -12 -12 -13 -13 -12 -12 -12 -12 -12 -12 -12 -12 -12 -12 -12 -12 -12 -12 -13 -13 -13 -13 -13 -12 -12 -13 -12 -12 -12 -12 -12 -12 -12 -12 -12 -12 -12 -12
-12 -12 -12 -12 -12 -13 -13 -13 -12 -12 -12 -12 -12 -13 -13 -13 -13 -13 -13 -13 -13 -13 -12 -12 -13 -13 -13 -12 -12 -13 -12 -12 -12 -12 -12 -12 -12 -12 -12 -12 -12 -13
-12 -12 -12 -12 -13 -13 -13 -13 -13 -13 -13 -13 -13 -13 -13 -13 -13 -13 -13 -13 -13 -13 -13 -13 -13 -13 -13 -12 -12 -13 -12 -12 -12 -12 -12 -12 -12 -12 -12 -12 -13 -13
-12 -12 -12 -13 -13 -13 -13 -13 -13 -13 -13 -13 -13 -13 -13 -13 -13 -13 -13 -13 -13 -13 -13 -13 -13 -13 -13 -13 -13 -13 -13 -12 -12 -12 -12 -12 -12 -12 -13 -13 -13 -13
-12 -12 -12 -13 -13 -13 -13 -13 -13 -13 -13 -13 -13 -13 -13 -14 -14 -14 -14 -14 -13 -13 -13 -13 -13 -13 -12 -13 -13 -13 -13 -13 -13 -12 -12 -12 -12 -12 -13 -13 -13 -13
-12 -12 -13 -13 -13 -13 -13 -13 -13 -13 -13 -13 -13 -13 -13 -14 -14 -14 -14 -14 -14 -13 -13 -13 -13 -13 -13 -13 -13 -13 -13 -13 -13 -13 -13 -12 -12 -12 -13 -13 -13 -13
-13 -13 -13 -13 -13 -13 -13 -13 -13 -13 -13 -13 -13 -13 -14 -14 -14 -14 -14 -14 -14 -14 -13 -13 -13 -13 -13 -13 -13 -13 -13 -13 -13 -13 -13 -13 -13 -13 -13 -13 -13 -13
-13 -13 -13 -13 -13 -14 -13 -13 -13 -13 -13 -13 -13 -13 -14 -14 -14 -14 -14 -14 -14 -14 -14 -13 -13 -13 -13 -13 -13 -13 -14 -14 -14 -14 -13 -13 -13 -13 -13 -13 -13 -13
-13 -13 -13 -14 -14 -14 -14 -13 -13 -13 -13 -13 -13 -13 -14 -14 -14 -14 -14 -14 -14 -14 -14 -14 -14 -14 -13 -13 -13 -13 -14 -14 -14 -14 -14 -13 -13 -13 -13 -13 -13 -13
-13 -13 -14 -14 -14 -14 -14 -14 -13 -13 -14 -13 -13 -14 -14 -14 -14 -14 -14 -14 -14 -14 -14 -14 -14 -14 -14 -13 -13 -13 -13 -14 -14 -14 -14 -14 -13 -13 -13 -13 -13 -13
-13 -14 -14 -14 -14 -14 -14 -14 -14 -14 -14 -14 -14 -14 -14 -14 -14 -14 -14 -14 -14 -14 -14 -14 -14 -14 -14 -14 -13 -13 -13 -14 -14 -14 -14 -14 -14 -13 -13 -13 -13 -13
-14 -14 -14 -14 -14 -14 -14 -14 -14 -14 -14 -14 -14 -14 -14 -14 -14 -14 -14 -14 -14 -14 -14 -14 -14 -14 -14 -14 -14 -14 -14 -14 -14 -13 -13 -13 -14 -14 -14 -14 -14 -14
-14 -14 -14 -14 -14 -14 -14 -14 -14 -14 -14 -14 -14 -14 -14 -14 -14 -14 -14 -14 -14 -14 -14 -14 -14 -14 -14 -14 -14 -14 -14 -14 -14 -14 -13 -13 -14 -14 -14 -14 -14 -14
-14 -14 -14 -14 -14 -14 -14 -14 -14 -14 -14 -14 -14 -14 -14 -14 -14 -14 -14 -14 -14 -14 -14 -14 -14 -14 -14 -14 -14 -14 -14 -14 -14 -13 -13 -13 -13 -14 -14 -14 -14 -14
-14 -14 -15 -15 -15 -15 -14 -14 -14 -14 -14 -14 -14 -14 -14 -14 -14 -14 -14 -14 -14 -14 -14 -14 -14 -14 -14 -14 -14 -14 -14 -14 -14 -14 -13 -13 -13 -13 -13 -14 -14 -14
-14 -15 -15 -15 -15 -15 -15 -15 -14 -14 -14 -14 -14 -14 -14 -14 -14 -14 -14 -14 -14 -14 -14 -14 -14 -14 -14 -14 -14 -14 -14 -13 -13 -14 -14 -14 -13 -13 -13 -14 -14 -14
-15 -15 -15 -15 -15 -15 -15 -15 -15 -15 -15 -14 -14 -14 -14 -14 -14 -14 -14 -14 -14 -14 -14 -14 -14 -14 -14 -14 -14 -14 -14 -13 -14 -14 -14 -14 -14 -13 -14 -14 -14 -14
-15 -15 -15 -15 -15 -15 -15 -15 -15 -15 -15 -15 -14 -14 -14 -14 -14 -14 -14 -14 -14 -14 -14 -14 -14 -14 -14 -14 -14 -14 -14 -14 -14 -14 -14 -14 -14 -14 -14 -14 -14 -14
-15 -15 -15 -15 -15 -15 -15 -15 -15 -15 -15 -15 -14 -14 -14 -14 -14 -14 -14 -14 -14 -14 -14 -14 -14 -14 -14 -14 -14 -14 -14 -14 -14 -14 -14 -14 -14 -14 -14 -14 -14 -14
-15 -15 -15 -15 -15 -15 -15 -15 -15 -15 -15 -15 -14 -14 -14 -14 -14 -14 -14 -14 -14 -14 -14 -14 -14 -14 -14 -14 -14 -14 -14 -14 -14 -14 -14 -14 -14 -14 -14 -14 -14 -14
-16 -15 -15 -15 -15 -15 -15 -15 -15 -15 -15 -15 -15 -15 -14 -14 -14 -14 -14 -15 -15 -15 -14 -14 -14 -14 -14 -14 -14 -14 -14 -14 -14 -14 -14 -14 -14 -14 -14 -15 -14 -14
-16 -16 -16 -16 -15 -15 -15 -15 -15 -15 -15 -15 -15 -15 -15 -14 -15 -15 -15 -15 -15 -15 -15 -14 -14 -14 -14 -14 -14 -14 -14 -14 -14 -15 -15 -15 -15 -15 -15 -15 -15 -14
-16 -16 -16 -16 -16 -16 -15 -15 -15 -15 -15 -15 -15 -15 -15 -15 -15 -15 -15 -15 -15 -15 -15 -15 -15 -14 -14 -14 -14 -14 -14 -14 -14 -15 -15 -15 -15 -15 -15 -15 -15 -14
-16 -16 -16 -16 -16 -16 -16 -16 -15 -15 -15 -15 -15 -15 -15 -15 -15 -15 -15 -15 -15 -15 -15 -15 -15 -15 -14 -14 -14 -14 -15 -15 -15 -15 -15 -15 -15 -15 -15 -15 -15 -14
-16 -16 -16 -16 -16 -16 -16 -16 -16 -16 -15 -15 -15 -15 -15 -15 -15 -15 -15 -15 -15 -15 -15 -15 -15 -15 -15 -15 -15 -15 -15 -15 -15 -15 -15 -15 -15 -15 -15 -14 -14 -14
Height
5797 5797 5796 5795 5794 5793 5792 5791 5790 5789 5788 5787 5786 5785 5783 5782 5780 5779 5777 5775 5774 5774 5773 5773 5772 5771 5771 5771 5771 5770 5770 5771 5771 5772 5773 5773 5773 5773 5774 5775 5776 5777
5795 5794 5793 5792 5791 5790 5789 5788 5787 5786 5785 5783 5781 5780 5779 5778 5776 5775 5773 5771 5769 5768 5768 5768 5767 5767 5767 5767 5768 5767 5767 5768 5768 5768 5769 5770 5770 5771 5772 5773 5774 5775
5792 5791 5790 5789 5788 5787 5786 5785 5784 5783 5782 5780 5778 5776 5774 5773 5772 5770 5769 5767 5765 5763 5763 5763 5763 5764 5764 5763 5764 5764 5764 5764 5764 5764 5766 5767 5768 5769 5770 5771 5772 5773
5789 5788 5788 5787 5786 5785 5784 5783 5781 5780 5779 5777 5775 5773 5771 5770 5768 5767 5765 5763 5761 5760 5759 5759 5759 5760 5760 5759 5760 5761 5762 5762 5761 5761 5761 5763 5764 5766 5767 5767 5768 5769
5786 5786 5785 5784 5783 5782 5781 5780 5779 5778 5776 5774 5773 5771 5769 5767 5765 5764 5761 5759 5758 5756 5755 5755 5756 5756 5755 5755 5756 5757 5758 5758 5758 5757 5757 5759 5760 5761 5762 5763 5764 5765
5784 5783 5782 5781 5780 5780 5779 5778 5777 5776 5774 5772 5770 5768 5766 5764 5763 5760 5758 5756 5754 5753 5752 5752 5752 5751 5750 5751 5752 5752 5753 5753 5754 5754 5754 5755 5756 5757 5757 5758 5760 5760
5781 5780 5779 5778 5777 5777 5776 5775 5774 5773 5771 5769 5767 5765 5763 5761 5760 5757 5755 5753 5751 5749 5748 5747 5747 5747 5746 5747 5749 5748 5747 5748 5749 5750 5751 5752 5752 5753 5753 5754 5755 5757
5778 5777 5776 5775 5774 5774 5773 5773 5772 5770 5768 5766 5764 5762 5761 5759 5757 5754 5752 5750 5747 5746 5744 5742 5742 5743 5743 5744 5745 5745 5744 5744 5745 5746 5747 5748 5749 5750 5751 5751 5752 5753
5775 5774 5773 5772 5772 5771 5770 5770 5769 5767 5765 5763 5762 5760 5758 5756 5754 5752 5749 5747 5744 5742 5741 5739 5738 5739 5740 5740 5742 5742 5741 5741 5741 5742 5743 5744 5745 5746 5748 5748 5749 5750
5772 5771 5770 5769 5769 5768 5768 5767 5766 5764 5762 5761 5759 5757 5755 5754 5752 5750 5747 5744 5742 5740 5738 5736 5735 5735 5736 5736 5737 5738 5739 5739 5738 5739 5739 5740 5741 5743 5744 5745 5745 5746
5769 5768 5767 5766 5766 5765 5764 5764 5762 5761 5760 5758 5756 5754 5753 5751 5749 5747 5745 5742 5740 5737 5735 5733 5732 5732 5732 5732 5733 5734 5735 5736 5736 5735 5736 5736 5738 5739 5740 5741 5742 5744
5766 5765 5764 5763 5763 5762 5761 5760 5759 5758 5756 5755 5753 5751 5750 5748 5747 5745 5742 5740 5738 5735 5733 5731 5729 5729 5728 5729 5729 5730 5732 5733 5733 5733 5733 5733 5734 5735 5737 5738 5739 5740
5763 5762 5761 5760 5760 5759 5758 5757 5756 5755 5753 5752 5750 5749 5747 5746 5744 5742 5740 5738 5736 5734 5732 5730 5728 5726 5726 5726 5726 5726 5728 5730 5730 5730 5730 5730 5731 5731 5733 5735 5735 5735
5760 5759 5758 5757 5756 5755 5754 5753 5752 5751 5750 5749 5748 5746 5745 5743 5741 5740 5738 5736 5734 5732 5730 5728 5726 5724 5723 5723 5722 5723 5724 5726 5726 5727 5727 5727 5727 5728 5729 5731 5731 5731
5756 5756 5755 5754 5753 5752 5751 5750 5750 5749 5747 5746 5745 5743 5742 5740 5739 5737 5735 5734 5732 5730 5728 5726 5724 5722 5720 5720 5720 5720 5720 5722 5723 5724 5724 5724 5724 5725 5726 5727 5728 5728
5753 5752 5751 5751 5750 5749 5748 5747 5746 5746 5745 5743 5741 5740 5738 5737 5736 5734 5732 5731 5730 5728 5727 5724 5722 5720 5719 5718 5717 5717 5718 5719 5720 5720 5721 5722 5722 5723 5723 5723 5724 5725
5749 5748 5748 5747 5746 5745 5745 5744 5743 5742 5741 5740 5738 5737 5735 5734 5733 5731 5729 5728 5727 5726 5724 5723 5721 5719 5717 5716 5715 5715 5715 5716 5717 5717 5718 5718 5719 5719 5720 5720 5721 5722
5745 5745 5744 5743 5743 5742 5741 5740 5739 5739 5738 5737 5735 5734 5732 5731 5729 5728 5726 5724 5724 5723 5721 5720 5719 5717 5715 5713 5713 5713 5713 5713 5713 5713 5713 5714 5714 5715 5716 5716 5717 5718
5741 5741 5740 5740 5739 5738 5737 5736 5736 5735 5734 5733 5732 5731 5729 5728 5726 5725 5723 5722 5721 5720 5719 5717 5715 5713 5711 5710 5709 5709 5710 5710 5709 5708 5708 5709 5710 5710 5711 5713 5714 5715
5738 5737 5737 5736 5735 5734 5734 5733 5732 5731 5730 5730 5729 5727 5726 5724 5723 5722 5720 5719 5718 5717 5716 5714 5712 5710 5709 5707 5706 5706 5705 5705 5705 5705 5705 5705 5706 5707 5708 5708 5709 5710
5734 5734 5733 5733 5732 5731 5730 5729 5728 5727 5726 5725 5725 5724 5722 5721 5720 5719 5717 5716 5715 5714 5713 5712 5709 5708 5706 5705 5704 5702 5701 5701 5702 5702 5701 5701 5702 5704 5704 5705 5706 5707
5730 5729 5729 5729 5728 5727 5726 5725 5724 5723 5722 5721 5720 5719 5718 5717 5716 5715 5714 5713 5712 5711 5710 5709 5707 5705 5704 5703 5701 5700 5698 5697 5697 5697 5697 5698 5699 5700 5701 5702 5703 5704
5725 5725 5725 5724 5723 5722 5722 5721 5720 5719 5718 5717 5716 5715 5714 5714 5712 5712 5710 5709 5708 5708 5707 5706 5704 5702 5701 5700 5698 5697 5695 5694 5693 5693 5693 5694 5695 5696 5697 5698 5699 5701
5721 5721 5721 5720 5719 5718 5717 5716 5715 5714 5713 5713 5712 5711 5711 5710 5709 5708 5706 5705 5705 5704 5704 5703 5701 5700 5698 5696 5695 5694 5693 5691 5690 5690 5690 5691 5692 5692 5694 5695 5695 5697
5717 5717 5716 5716 5714 5713 5712 5712 5711 5710 5709 5708 5707 5707 5706 5706 5705 5704 5702 5701 5701 5700 5700 5699 5698 5696 5695 5693 5692 5691 5690 5688 5687 5687 5687 5688 5689 5689 5690 5691 5692 5693
5712 5712 5711 5711 5710 5709 5708 5707 5706 5705 5705 5704 5703 5702 5701 5701 5700 5699 5698 5697 5696 5696 5696 5695 5694 5693 5692 5691 5689 5687 5686 5686 5685 5684 5684 5685 5686 5687 5688 5689 5689 5690
Wind_Speed
19 20 22 23 24 24 25 27 27 28 29 30 30 31 31 32 32 33 33 33 32 32 32 30 29 29 28 27 27 27 27 26 26 25 23 22 22 23 23 23 22 21
21 22 23 24 25 26 27 29 29 29 30 31 32 32 32 32 33 33 34 34 35 34 33 31 30 29 28 28 27 27 27 26 26 26 24 22 21 23 24 23 22 21
22 23 24 25 26 27 28 29 29 29 30 31 33 33 33 33 33 33 34 34 35 35 34 33 31 29 28 27 26 27 27 26 26 27 26 23 21 22 24 24 23 22
24 24 25 25 27 28 28 28 29 29 29 31 32 33 33 34 33 33 33 34 35 35 35 34 33 31 28 27 27 27 27 27 27 28 27 25 23 23 24 24 23 22
25 25 26 26 27 28 28 27 27 28 29 30 31 32 33 33 33 33 33 34 34 34 35 35 34 33 31 28 26 26 26 27 28 29 28 25 24 24 24 24 23 23
26 26 26 27 28 28 27 27 27 28 29 30 31 32 32 32 32 33 34 34 35 35 35 35 33 33 34 33 29 27 27 27 28 28 28 27 25 25 26 26 25 25
26 27 27 28 28 27 26 27 27 28 29 30 30 31 31 31 31 32 33 35 36 36 36 35 34 32 33 34 32 29 28 28 27 27 28 29 28 28 28 27 26 25
27 27 27 28 27 26 26 27 28 29 29 29 30 30 30 30 30 31 32 33 35 37 37 35 33 30 28 31 32 31 30 28 28 28 28 30 31 30 28 27 27 26
27 27 28 27 27 26 27 27 28 29 29 29 29 29 29 29 29 30 31 32 34 35 36 34 30 27 26 28 31 31 30 29 29 29 29 29 31 31 29 28 28 28
28 28 28 28 27 27 27 28 28 28 28 29 29 29 28 28 29 29 30 31 32 33 33 32 28 25 25 28 30 29 28 29 30 31 30 29 30 31 30 29 28 29
28 29 29 29 28 28 28 28 28 28 27 28 29 29 29 28 28 29 29 29 30 31 31 30 27 25 25 27 29 29 29 30 30 31 30 29 29 30 30 29 28 28
29 29 30 30 29 29 28 28 28 28 27 27 28 29 29 28 28 29 29 29 29 30 31 30 29 26 26 28 28 30 30 29 29 30 30 29 28 29 29 28 27 28
30 30 31 31 30 30 29 29 29 28 28 28 28 29 29 29 28 29 29 29 29 29 30 31 31 29 27 28 30 30 29 28 28 28 28 29 28 28 28 28 28 29
30 31 31 31 30 30 29 29 29 30 30 30 29 29 30 30 30 30 30 30 29 28 29 30 31 30 28 26 27 28 28 27 27 27 27 28 29 28 27 28 29 30
31 31 31 31 30 30 30 30 30 31 31 31 31 31 31 32 33 32 31 30 30 28 28 29 30 31 29 26 24 25 27 27 27 27 27 28 30 29 28 29 29 30
32 32 32 31 31 31 30 31 31 32 32 32 33 34 34 35 35 34 33 31 30 29 28 29 30 30 29 27 24 24 25 26 27 27 27 27 29 30 30 30 31 31
32 32 32 32 32 32 31 32 32 33 33 33 34 36 37 37 36 35 34 32 31 29 28 28 28 30 29 27 25 23 23 25 27 28 29 28 28 28 30 32 32 32
33 33 33 32 32 32 32 33 33 33 34 34 35 36 37 37 36 35 34 32 31 30 29 28 28 29 30 29 26 23 22 24 27 29 30 30 27 27 29 32 32 32
33 32 32 32 32 33 33 33 34 34 34 35 36 37 37 37 36 35 34 32 30 29 27 27 27 29 30 29 27 23 22 25 27 29 30 29 27 27 28 29 30 31
33 33 33 33 33 34 34 34 35 35 35 35 36 37 38 37 36 35 34 32 30 28 26 26 27 28 29 28 26 24 23 25 27 28 28 28 26 27 27 27 28 29
34 34 34 34 34 35 35 36 36 36 37 37 37 37 38 37 35 34 33 32 30 28 27 27 27 27 28 28 27 26 25 25 25 26 28 27 26 27 28 28 28 28
35 35 35 35 35 36 36 37 37 37 37 37 37 37 37 36 35 33 32 31 30 29 28 27 28 28 27 28 28 27 27 26 25 27 28 27 27 28 30 30 29 28
35 35 36 36 36 37 38 38 38 38 38 37 37 36 35 35 34 32 31 31 30 30 29 28 28 28 27 29 28 25 26 27 26 27 27 26 26 28 30 30 29 29
36 36 36 37 38 38 39 39 40 40 39 38 37 36 35 35 35 33 32 32 31 30 29 28 28 27 27 28 26 24 25 27 27 27 26 24 24 27 28 29 29 29
38 38 39 39 40 40 40 41 41 41 40 39 38 37 35 35 36 35 34 34 33 31 29 28 27 26 26 26 27 26 26 26 26 26 25 24 25 26 27 28 29 30
39 40 40 40 41 41 41 41 41 41 40 39 39 38 36 36 36 36 35 35 34 32 30 28 26 25 24 24 26 26 25 26 28 28 27 27 28 29 29 28 28 29
Wind_Direction
300 304 305 307 308 310 311 312 313 313 312 310 308 307 307 305 303 301 299 295 290 288 288 288 286 281 274 271 270 269 270 270 269 270 271 269 264 258 253 253 252 245
302 305 306 308 310 311 312 314 314 314 314 312 312 311 309 307 305 302 300 297 293 291 288 284 284 283 275 267 266 267 267 267 267 265 266 267 264 257 251 251 249 245
302 304 306 308 310 311 312 314 315 315 315 314 314 313 312 310 308 305 302 300 297 294 289 284 282 282 271 262 262 263 264 266 266 264 262 263 262 256 250 248 246 247
300 302 305 307 309 310 312 314 315 316 316 315 314 313 312 310 310 308 304 301 298 293 289 286 285 281 268 257 258 260 260 261 262 263 262 259 257 254 251 248 246 250
299 301 304 306 308 310 312 313 313 314 315 315 314 312 311 310 310 309 307 303 299 294 290 289 288 282 268 255 254 257 259 258 258 261 261 259 255 252 249 249 252 255
298 300 303 306 308 310 311 310 311 313 314 315 315 313 311 310 310 310 309 307 303 298 294 290 286 280 268 257 254 255 256 256 257 259 259 256 253 250 249 252 256 255
297 300 303 305 307 308 308 308 310 312 313 314 314 313 312 311 310 311 310 309 307 304 300 293 286 279 271 259 254 253 253 253 254 255 255 253 251 250 250 253 254 251
296 298 301 303 304 305 305 307 310 311 311 312 312 314 313 311 310 310 311 311 311 309 306 299 289 283 275 258 250 251 253 253 252 250 250 251 250 249 250 251 251 249
294 296 300 301 302 302 304 307 309 309 308 309 311 314 315 312 310 311 311 312 313 313 312 306 292 284 275 257 251 253 253 254 254 250 249 249 248 248 249 250 249 249
292 295 298 299 298 300 303 306 306 306 306 308 311 313 315 315 312 312 311 312 315 316 316 312 298 283 270 258 256 260 259 258 256 251 248 248 247 247 247 247 248 249
290 293 295 295 295 297 302 304 304 303 305 308 311 313 316 316 314 313 311 311 315 317 318 317 307 289 271 260 260 263 264 264 261 254 250 248 247 246 245 245 246 247
289 291 292 292 293 297 301 303 301 301 304 308 311 313 315 316 315 313 312 311 313 317 318 319 316 304 282 267 263 263 262 265 264 258 252 250 249 247 246 246 245 245
287 289 289 290 293 296 300 301 299 300 303 306 308 311 313 315 315 313 312 311 312 315 318 317 318 314 296 275 267 264 263 264 264 257 254 252 249 247 247 246 244 245
285 287 288 289 292 295 298 298 298 300 302 303 304 308 312 314 314 313 312 311 311 313 317 316 315 315 306 287 273 268 266 266 263 257 255 255 250 247 246 244 242 245
283 285 286 287 290 293 295 295 296 297 299 299 300 304 309 313 313 312 310 311 311 312 314 315 314 312 307 295 283 274 269 266 263 258 256 257 254 248 245 243 244 245
281 283 285 287 289 291 293 293 293 295 296 297 298 301 307 311 311 311 309 309 310 311 312 313 314 313 308 297 289 281 271 265 263 258 255 257 256 250 244 244 245 247
280 283 285 287 289 290 291 290 291 292 293 294 297 300 304 308 310 309 307 307 308 308 310 311 311 312 309 302 295 287 277 270 266 261 259 260 260 254 247 245 246 246
281 283 284 287 288 288 289 288 289 291 292 293 296 298 302 306 307 307 305 304 305 306 308 310 310 309 307 304 300 291 282 274 269 264 263 262 260 257 252 248 247 247
281 282 284 285 286 286 287 288 289 290 291 293 295 298 301 303 305 305 303 302 304 306 308 310 311 310 308 304 299 291 280 271 266 263 262 262 260 259 257 254 253 252
280 281 282 283 284 285 286 287 289 290 291 293 295 297 300 302 303 303 302 301 302 304 308 310 310 311 311 308 300 290 279 270 265 263 261 262 262 260 257 253 251 252
279 280 281 282 282 284 286 287 289 291 292 294 296 297 298 299 300 301 300 300 300 303 307 310 309 310 313 311 302 291 282 275 269 264 261 260 261 258 251 246 242 244
279 279 279 280 282 284 286 288 290 292 293 295 296 297 297 297 297 297 297 298 299 302 305 307 308 309 312 312 304 292 287 283 273 265 262 261 261 255 247 243 241 241
278 278 279 280 282 284 286 288 289 291 293 294 295 296 296 296 296 295 295 296 297 300 303 304 306 307 310 312 305 293 290 288 276 266 264 263 260 252 242 240 241 240
278 279 279 281 283 285 286 287 288 290 292 293 293 294 293 293 294 294 295 295 296 298 300 301 303 304 308 311 306 298 296 293 279 266 261 259 256 250 241 237 239 239
278 279 280 281 282 284 285 286 287 288 290 291 292 293 292 291 291 293 294 294 295 296 298 300 302 303 306 308 306 301 297 289 277 267 260 255 252 248 240 237 240 241
278 279 279 280 281 282 284 285 286 287 288 290 291 292 291 290 289 290 292 293 294 295 297 298 299 299 300 301 302 300 291 279 272 268 263 259 254 248 241 240 242 242